Siloam Springs, AR

11:51 AM CST on February 22, 2017 (GMT -0600)
Smith

Weather History for KSLG - January, 2012

Change the Weather History Date:

Sunday, January 15, 2012

  Actual Average Record
Temperature  
Mean Temperature 42 °F -  
Max Temperature 57 °F 43 °F 66 °F (2006)
Min Temperature 28 °F 27 °F 12 °F (2009)
Degree Days  
Heating Degree Days 22    
Moisture  
Dew Point 25 °F    
Average Humidity 50    
Maximum Humidity 74    
Minimum Humidity 33    
Precipitation  
Precipitation 0.00 in - - ()
Sea Level Pressure  
Sea Level Pressure 30.17 in    
Wind  
Wind Speed 10 mph (SE)    
Max Wind Speed 24 mph    
Max Gust Speed 30 mph    
Visibility 10 miles    
Events      
Averages and records for this station are not official NWS values.
T = Trace of Precipitation, MM = Missing Value Source: NWS Daily Summary

Daily Weather History Graph

Daily Weather History Graph

Search for Another Location

Airport or City:

Trip Planner

Search our weather history database for the weather conditions in past years. The results will help you decide how hot, cold, wet, or windy it might be!

Date:

Astronomy

Jan. 15, 2012 Rise Set
Actual Time 7:28 AM CST 5:26 PM CST
Civil Twilight 7:00 AM CST 5:54 PM CST
Nautical Twilight 6:28 AM CST 6:26 PM CST
Astronomical Twilight 5:57 AM CST 6:56 PM CST
Moon No Moon Rise 11:01 AM CST (1/15)
Length of Visible Light 10h 54m
Length of Day
9h 57m
Waning Gibbous, 57% of the Moon is Illuminated
Jan 15
Waning Gibbous
Jan 16
Last Quarter
Jan 23
New
Jan 30
First Quarter
Feb 7
Full

Hourly Weather History & Observations

Time (CST) Temp. Windchill Dew Point Humidity Pressure Visibility Wind Dir Wind Speed Gust Speed Precip Events Conditions
12:15 AM 28.4 °F 23.3 °F 19.4 °F 69% 30.27 in 10.0 mi East 4.6 mph - N/A   Clear
12:35 AM 28.4 °F 22.2 °F 21.2 °F 74% 30.27 in 10.0 mi East 5.8 mph - N/A   Clear
12:55 AM 30.2 °F 24.3 °F 21.2 °F 69% 30.26 in 10.0 mi East 5.8 mph - N/A   Clear
1:15 AM 30.2 °F 24.3 °F 21.2 °F 69% 30.26 in 10.0 mi East 5.8 mph - N/A   Clear
1:35 AM 28.4 °F 22.2 °F 21.2 °F 74% 30.26 in 10.0 mi East 5.8 mph - N/A   Clear
1:55 AM 30.2 °F 25.4 °F 21.2 °F 69% 30.26 in 10.0 mi East 4.6 mph - N/A   Clear
2:15 AM 30.2 °F 22.6 °F 21.2 °F 69% 30.25 in 10.0 mi East 8.1 mph - N/A   Clear
2:35 AM 28.4 °F 20.4 °F 21.2 °F 74% 30.25 in 10.0 mi ENE 8.1 mph - N/A   Clear
2:55 AM 30.2 °F 22.6 °F 21.2 °F 69% 30.25 in 10.0 mi East 8.1 mph - N/A   Clear
3:15 AM 30.2 °F 22.6 °F 21.2 °F 69% 30.25 in 10.0 mi East 8.1 mph - N/A   Clear
3:35 AM 30.2 °F 25.4 °F 21.2 °F 69% 30.24 in 10.0 mi East 4.6 mph - N/A   Clear
4:15 AM 30.2 °F 24.3 °F 21.2 °F 69% 30.23 in 10.0 mi East 5.8 mph - N/A   Clear
4:35 AM 30.2 °F 23.4 °F 21.2 °F 69% 30.23 in 10.0 mi East 6.9 mph - N/A   Clear
4:55 AM 30.2 °F 22.6 °F 21.2 °F 69% 30.23 in 10.0 mi East 8.1 mph - N/A   Clear
5:15 AM 30.2 °F 23.4 °F 21.2 °F 69% 30.23 in 10.0 mi East 6.9 mph - N/A   Clear
5:35 AM 28.4 °F 22.2 °F 19.4 °F 69% 30.23 in 10.0 mi East 5.8 mph - N/A   Clear
5:55 AM 30.2 °F 21.9 °F 21.2 °F 69% 30.22 in 10.0 mi East 9.2 mph - N/A   Clear
6:15 AM 30.2 °F 21.9 °F 21.2 °F 69% 30.22 in 10.0 mi East 9.2 mph - N/A   Clear
6:35 AM 30.2 °F 22.6 °F 21.2 °F 69% 30.22 in 10.0 mi East 8.1 mph - N/A   Clear
6:55 AM 32.0 °F 25.6 °F 21.2 °F 64% 30.22 in 10.0 mi East 6.9 mph - N/A   Clear
7:15 AM 32.0 °F 24.8 °F 21.2 °F 64% 30.22 in 10.0 mi ESE 8.1 mph - N/A   Clear
7:55 AM 35.6 °F 28.0 °F 21.2 °F 56% 30.22 in 10.0 mi SE 10.4 mph - N/A   Clear
8:15 AM 37.4 °F 31.4 °F 23.0 °F 56% 30.22 in 10.0 mi SE 8.1 mph - N/A   Clear
8:35 AM 41.0 °F 33.5 °F 24.8 °F 53% 30.22 in 10.0 mi SSE 13.8 mph - N/A   Clear
8:55 AM 44.6 °F 38.1 °F 26.6 °F 49% 30.23 in 10.0 mi SSE 13.8 mph 17.3 mph N/A   Clear
9:15 AM 46.4 °F 40.1 °F 26.6 °F 46% 30.23 in 10.0 mi SSE 15.0 mph 20.7 mph N/A   Clear
9:35 AM 48.2 °F - 26.6 °F 43% 30.23 in 10.0 mi SSE 13.8 mph 21.9 mph N/A   Clear
10:15 AM 50.0 °F - 26.6 °F 40% 30.24 in 10.0 mi SSE 18.4 mph 25.3 mph N/A   Clear
10:35 AM 51.8 °F - 26.6 °F 38% 30.24 in 10.0 mi SSE 19.6 mph 25.3 mph N/A   Clear
10:55 AM 51.8 °F - 26.6 °F 38% 30.23 in 10.0 mi SSE 20.7 mph 25.3 mph N/A   Clear
11:15 AM 53.6 °F - 26.6 °F 35% 30.22 in 10.0 mi South 17.3 mph - N/A   Clear
11:35 AM 53.6 °F - 28.4 °F 38% 30.21 in 10.0 mi South 17.3 mph 25.3 mph N/A   Clear
12:15 PM 55.4 °F - 28.4 °F 36% 30.18 in 10.0 mi South 15.0 mph 24.2 mph N/A   Clear
12:35 PM 55.4 °F - 28.4 °F 36% 30.17 in 10.0 mi South 21.9 mph 29.9 mph N/A   Clear
12:55 PM 57.2 °F - 28.4 °F 33% 30.16 in 10.0 mi South 23.0 mph 26.5 mph N/A   Clear
1:15 PM 55.4 °F - 26.6 °F 33% 30.15 in 10.0 mi South 24.2 mph 27.6 mph N/A   Clear
1:35 PM 55.4 °F - 26.6 °F 33% 30.14 in 10.0 mi South 20.7 mph 28.8 mph N/A   Clear
1:55 PM 55.4 °F - 26.6 °F 33% 30.13 in 10.0 mi South 21.9 mph 28.8 mph N/A   Clear
2:15 PM 55.4 °F - 26.6 °F 33% 30.12 in 10.0 mi South 21.9 mph 25.3 mph N/A   Clear
2:35 PM 55.4 °F - 28.4 °F 36% 30.11 in 10.0 mi SSE 13.8 mph 17.3 mph N/A   Clear
2:55 PM 55.4 °F - 28.4 °F 36% 30.11 in 10.0 mi SSE 17.3 mph 21.9 mph N/A   Clear
3:15 PM 55.4 °F - 28.4 °F 36% 30.10 in 10.0 mi South 16.1 mph 24.2 mph N/A   Clear
3:35 PM 53.6 °F - 28.4 °F 38% 30.09 in 10.0 mi SSE 15.0 mph 25.3 mph N/A   Clear
3:55 PM 53.6 °F - 28.4 °F 38% 30.09 in 10.0 mi South 13.8 mph 18.4 mph N/A   Clear
4:15 PM 55.4 °F - 28.4 °F 36% 30.08 in 10.0 mi South 18.4 mph 24.2 mph N/A   Clear
4:35 PM 55.4 °F - 28.4 °F 36% 30.07 in 10.0 mi SSE 12.7 mph 24.2 mph N/A   Clear
4:55 PM 53.6 °F - 28.4 °F 38% 30.06 in 10.0 mi SSE 12.7 mph 23.0 mph N/A   Clear
5:15 PM 53.6 °F - 28.4 °F 38% 30.06 in 10.0 mi SSE 10.4 mph 20.7 mph N/A   Clear
5:35 PM 51.8 °F - 28.4 °F 41% 30.05 in 10.0 mi SSE 12.7 mph 17.3 mph N/A   Clear
5:55 PM 51.8 °F - 28.4 °F 41% 30.05 in 10.0 mi SSE 13.8 mph 20.7 mph N/A   Clear
6:15 PM 51.8 °F - 28.4 °F 41% 30.05 in 10.0 mi SSE 15.0 mph 19.6 mph N/A   Clear
6:35 PM 51.8 °F - 28.4 °F 41% 30.04 in 10.0 mi SSE 13.8 mph 19.6 mph N/A   Clear
6:55 PM 51.8 °F - 28.4 °F 41% 30.04 in 10.0 mi SSE 15.0 mph 19.6 mph N/A   Clear
7:15 PM 51.8 °F - 28.4 °F 41% 30.04 in 10.0 mi SSE 15.0 mph 23.0 mph N/A   Clear
7:35 PM 51.8 °F - 28.4 °F 41% 30.04 in 10.0 mi SSE 16.1 mph 23.0 mph N/A   Clear
7:55 PM 51.8 °F - 28.4 °F 41% 30.04 in 10.0 mi SSE 15.0 mph 21.9 mph N/A   Clear
8:15 PM 51.8 °F - 28.4 °F 41% 30.04 in 10.0 mi SSE 19.6 mph 27.6 mph N/A   Clear
8:35 PM 51.8 °F - 28.4 °F 41% 30.04 in 10.0 mi SSE 16.1 mph 23.0 mph N/A   Clear
8:55 PM 51.8 °F - 28.4 °F 41% 30.03 in 10.0 mi South 18.4 mph 24.2 mph N/A   Clear
9:15 PM 50.0 °F - 28.4 °F 43% 30.04 in 10.0 mi South 17.3 mph 24.2 mph N/A   Clear
9:55 PM 51.8 °F - 30.2 °F 44% 30.03 in 10.0 mi South 17.3 mph - N/A   Mostly Cloudy
10:15 PM 51.8 °F - 30.2 °F 44% 30.02 in 10.0 mi South 16.1 mph 21.9 mph N/A   Scattered Clouds
10:35 PM 51.8 °F - 32.0 °F 47% 30.02 in 10.0 mi South 20.7 mph 28.8 mph N/A   Scattered Clouds
10:55 PM 53.6 °F - 33.8 °F 47% 30.01 in 10.0 mi South 20.7 mph 27.6 mph N/A   Mostly Cloudy
11:35 PM 53.6 °F - 35.6 °F 51% 30.01 in 10.0 mi South 18.4 mph 28.8 mph N/A   Overcast